The Glenridge on Palmer Ranch FL US WEATHERSTEM current weather conditions

sailwx.info

Wind from 057 at 4 knots gusting 8

Air temperature 20.6° C
Dewpoint 9.2° C

Last reported at 2019-Dec-05 20:50 UTC.
Time now 2019-Dec-05 22:11 UTC

Location: N 27°15' W 082°28'.
View on Google Maps.

See reports from other nearby stations

  
Tides and Currents Weather Stations Pressure Air Temp Water Temp Dewpoint Dewpoint Depression Visibility Wind Speed Wind Dir Waves Ship Positions
date/time (UTC)wind fromknots sea level pressurealtimeterstation pressurevisibilityair tempwater tempwave heightnotes
2019-Dec-05 20:50 057 4 gusting 8 20.6
2019-Dec-05 20:40 355 3 gusting 8 21.0
2019-Dec-05 20:30 319 1 gusting 9 20.8
2019-Dec-05 20:20 005 3 gusting 8 20.6
2019-Dec-05 20:10 304 3 gusting 7 21.1
2019-Dec-05 20:00 086 4 gusting 8 20.8
2019-Dec-05 19:50 328 1 gusting 9 20.9
2019-Dec-05 19:40 005 3 gusting 5 21.1
2019-Dec-05 19:30 052 7 gusting 8 20.7
2019-Dec-05 19:20 017 2 gusting 8 20.9
2019-Dec-05 19:10 011 4 gusting 7 20.6
2019-Dec-05 19:00 033 2 gusting 7 20.6
2019-Dec-05 18:50 057 2 gusting 6 20.9
2019-Dec-05 18:40 323 2 gusting 6 20.3
2019-Dec-05 18:30 346 1 gusting 5 20.2
2019-Dec-05 18:20 069 3 gusting 9 19.9
2019-Dec-05 18:10 005 2 gusting 8 19.9
2019-Dec-05 18:00 054 2 gusting 7 20.1
2019-Dec-05 17:50 046 2 gusting 8 19.5
2019-Dec-05 17:40 351 3 gusting 7 19.4
2019-Dec-05 17:30 342 3 gusting 8 19.3
2019-Dec-05 17:20 064 3 gusting 7 19.1
2019-Dec-05 17:10 005 3 gusting 7 19.0
2019-Dec-05 17:00 022 5 gusting 8 19.1
2019-Dec-05 16:50 005 1 gusting 8 19.1
2019-Dec-05 16:40 346 3 gusting 7 18.8
2019-Dec-05 16:30 133 1 gusting 9 18.6
2019-Dec-05 16:20 040 5 gusting 9 18.7
2019-Dec-05 16:10 066 5 gusting 10 18.3
2019-Dec-05 16:00 069 4 gusting 10 18.2
2019-Dec-05 15:50 055 4 gusting 10 18.1
2019-Dec-05 15:40 060 3 gusting 9 17.4
2019-Dec-05 15:30 065 4 gusting 11 17.5
2019-Dec-05 15:20 040 4 gusting 11 17.3
2019-Dec-05 15:10 015 4 gusting 9 17.1
2019-Dec-05 15:00 050 8 gusting 10 16.6
2019-Dec-05 14:50 067 0 gusting 8 16.4
2019-Dec-05 14:40 046 2 gusting 9 16.1
2019-Dec-05 14:30 049 6 gusting 8 15.6
2019-Dec-05 14:20 039 7 gusting 10 15.3
2019-Dec-05 14:10 051 7 gusting 8 14.9
2019-Dec-05 14:00 059 8 gusting 8 14.6
2019-Dec-05 13:50 042 3 gusting 6 14.0
2019-Dec-05 13:40 063 3 gusting 6 13.5
2019-Dec-05 13:30 051 3 gusting 4 12.9
2019-Dec-05 13:20 063 1 gusting 3 12.5
2019-Dec-05 13:10 042 1 gusting 2 12.2
2019-Dec-05 13:00 071 0 gusting 2 11.8
2019-Dec-05 12:50 069 1 gusting 2 11.4
2019-Dec-05 12:40 054 0 gusting 1 11.4
2019-Dec-05 12:30 054 0 gusting 2 10.9
2019-Dec-05 12:20 087 10.6
2019-Dec-05 12:10 085 1 gusting 3 10.7
2019-Dec-05 12:00 095 1 gusting 3 10.8
2019-Dec-05 11:50 108 2 gusting 2 10.8
2019-Dec-05 11:40 117 1 gusting 2 10.9
2019-Dec-05 11:30 117 2 gusting 2 11.1
2019-Dec-05 11:20 095 1 gusting 3 11.1
2019-Dec-05 11:10 058 0 gusting 3 11.2
2019-Dec-05 11:00 052 1 gusting 2 11.2
2019-Dec-05 10:50 066 1 gusting 2 11.1
2019-Dec-05 10:40 038 1 gusting 2 11.3
2019-Dec-05 10:30 045 0 gusting 2 11.2
2019-Dec-05 10:20 056 1 gusting 2 11.3
2019-Dec-05 10:10 089 1 gusting 4 11.3
2019-Dec-05 10:00 065 0 gusting 3 11.4
2019-Dec-05 09:50 085 2 gusting 2 11.5
2019-Dec-05 09:40 086 2 gusting 2 11.4
2019-Dec-05 09:30 059 1 gusting 2 11.3
2019-Dec-05 09:20 083 1 gusting 3 11.3
2019-Dec-05 09:10 084 2 gusting 3 11.4
2019-Dec-05 09:00 085 3 gusting 3 11.4
2019-Dec-05 08:50 087 1 gusting 2 11.5
2019-Dec-05 08:40 085 2 gusting 2 11.3
2019-Dec-05 08:20 067 2 gusting 3 11.7
2019-Dec-05 08:10 068 2 gusting 3 11.8
2019-Dec-05 08:00 067 2 gusting 3 11.9
2019-Dec-05 07:50 083 2 gusting 2 12.0
2019-Dec-05 07:40 083 1 gusting 2 12.2
2019-Dec-05 07:20 12.0
2019-Dec-05 07:10 074 1 gusting 3 11.9
2019-Dec-05 07:00 064 0 gusting 2 12.1
2019-Dec-05 06:50 058 0 gusting 2 12.1
2019-Dec-05 06:40 073 1 gusting 2 12.2
2019-Dec-05 06:30 078 1 gusting 2 12.3
2019-Dec-05 06:20 078 0 gusting 2 12.3
2019-Dec-05 06:10 078 2 gusting 2 12.1
2019-Dec-05 06:00 069 0 gusting 2 12.3
2019-Dec-05 05:50 069 1 gusting 1 12.4
2019-Dec-05 05:40 069 0 gusting 2 12.2
2019-Dec-05 05:30 048 1 gusting 2 12.3
2019-Dec-05 05:20 069 0 gusting 2 12.4
2019-Dec-05 05:10 073 0 gusting 2 12.7
2019-Dec-05 05:00 036 1 gusting 1 12.7
2019-Dec-05 04:50 076 1 gusting 1 12.7
2019-Dec-05 04:40 076 0 gusting 2 12.7
2019-Dec-05 04:30 068 1 gusting 2 12.7
2019-Dec-05 04:20 075 1 gusting 2 12.9
2019-Dec-05 04:10 079 0 gusting 2 12.9
2019-Dec-05 04:00 079 1 gusting 2 13.1
2019-Dec-05 03:50 073 2 gusting 2 13.1
2019-Dec-05 03:40 073 0 gusting 2 13.1
2019-Dec-05 03:30 073 0 gusting 1 13.2
2019-Dec-05 03:20 073 1 gusting 2 13.1
2019-Dec-05 03:10 064 1 gusting 2 13.4
2019-Dec-05 03:00 13.7
2019-Dec-05 02:50 016 0 gusting 1 13.8
2019-Dec-05 02:40 016 0 gusting 2 14.1
2019-Dec-05 02:30 009 2 gusting 2 14.0
2019-Dec-05 02:20 005 0 gusting 1 14.1
2019-Dec-05 02:10 005 1 gusting 1 14.3
2019-Dec-05 02:00 355 0 gusting 0 14.2
2019-Dec-05 01:50 14.4
2019-Dec-05 01:40 14.7
2019-Dec-05 01:30 14.7
2019-Dec-05 01:20 355 0 gusting 1 14.8
2019-Dec-05 01:10 351 0 gusting 1 15.0
2019-Dec-05 01:00 350 15.1
2019-Dec-05 00:50 325 0 gusting 1 15.3
2019-Dec-05 00:40 15.4
2019-Dec-05 00:30 331 1 gusting 2 15.6
2019-Dec-05 00:20 327 1 gusting 2 15.7
2019-Dec-05 00:10 317 1 gusting 3 15.7
2019-Dec-05 00:00 327 0 gusting 2 15.7
2019-Dec-04 23:50 319 1 gusting 5 15.8
2019-Dec-04 23:40 311 1 gusting 3 15.9
2019-Dec-04 23:30 300 1 gusting 3 16.2
2019-Dec-04 23:20 332 0 gusting 4 16.4
2019-Dec-04 23:10 327 1 gusting 5 16.6
2019-Dec-04 23:00 310 0 gusting 3 16.9
2019-Dec-04 22:50 325 0 gusting 4 17.0
2019-Dec-04 22:40 309 1 gusting 5 17.2
2019-Dec-04 22:30 304 2 gusting 6 17.6
2019-Dec-04 22:20 319 0 gusting 6 18.1
2019-Dec-04 22:10 360 1 gusting 8 18.3
2019-Dec-04 22:00 320 2 gusting 9 18.7
2019-Dec-04 21:50 296 2 gusting 7 19.1
2019-Dec-04 21:40 292 1 gusting 8 19.3
2019-Dec-04 21:30 274 2 gusting 8 19.6
2019-Dec-04 21:20 319 3 gusting 7 19.8
2019-Dec-04 21:10 329 1 gusting 6 19.7
2019-Dec-04 21:00 305 3 gusting 6 19.9
2019-Dec-04 20:50 016 2 gusting 7 20.0
2019-Dec-04 20:40 320 3 gusting 9 20.2
2019-Dec-04 20:30 340 0 gusting 9 20.1
2019-Dec-04 20:20 287 3 gusting 9 20.1
2019-Dec-04 20:10 350 4 gusting 7 20.3
2019-Dec-04 20:00 028 4 gusting 9 20.3
2019-Dec-04 19:50 087 1 gusting 9 20.4
2019-Dec-04 19:40 032 2 gusting 10 20.4
2019-Dec-04 19:30 355 2 gusting 10 20.5
2019-Dec-04 19:20 329 6 gusting 10 20.6
2019-Dec-04 19:10 284 3 gusting 10 20.8
2019-Dec-04 19:00 316 0 gusting 9 20.7
2019-Dec-04 18:50 295 6 gusting 10 20.4
2019-Dec-04 18:40 290 2 gusting 13 20.5
2019-Dec-04 18:30 312 4 gusting 11 20.3
2019-Dec-04 18:20 303 6 gusting 10 20.5
2019-Dec-04 18:10 313 1 gusting 9 20.6
2019-Dec-04 18:00 024 4 gusting 10 20.3
2019-Dec-04 17:50 315 5 gusting 9 20.2
2019-Dec-04 17:40 327 4 gusting 10 20.0
2019-Dec-04 17:30 285 6 gusting 11 19.4
2019-Dec-04 17:20 005 2 gusting 8 19.7
2019-Dec-04 17:10 360 2 gusting 8 19.2
2019-Dec-04 17:00 075 3 gusting 10 19.4
2019-Dec-04 16:50 333 2 gusting 10 19.4
2019-Dec-04 16:40 275 5 gusting 7 19.3
2019-Dec-04 16:30 005 4 gusting 11 18.8
2019-Dec-04 16:20 034 5 gusting 6 18.7
2019-Dec-04 16:10 344 1 gusting 8 19.3
2019-Dec-04 16:00 345 2 gusting 6 19.1
2019-Dec-04 15:50 313 6 gusting 7 18.6
2019-Dec-04 15:40 055 2 gusting 7 18.3
2019-Dec-04 15:30 046 4 gusting 11 17.8
2019-Dec-04 15:20 038 0 gusting 8 17.3
2019-Dec-04 15:10 044 3 gusting 7 16.9
2019-Dec-04 15:00 040 6 gusting 10 16.6
2019-Dec-04 14:50 046 5 gusting 8 16.7
2019-Dec-04 14:40 055 1 gusting 7 16.6
2019-Dec-04 14:30 040 6 gusting 8 16.5
2019-Dec-04 14:20 360 8 gusting 8 16.7
2019-Dec-04 14:10 058 16.7
2019-Dec-04 14:00 071 1 gusting 7 16.7
2019-Dec-04 13:50 060 2 gusting 5 16.8
2019-Dec-04 13:40 031 1 gusting 8 16.7
2019-Dec-04 13:30 360 4 gusting 9 16.8
2019-Dec-04 13:20 053 3 gusting 10 17.2
2019-Dec-04 13:10 331 1 gusting 5 17.0
2019-Dec-04 13:00 345 1 gusting 4 16.7
2019-Dec-04 12:50 334 2 gusting 4 16.5
2019-Dec-04 12:40 327 2 gusting 4 16.3
2019-Dec-04 12:30 350 1 gusting 2 15.7
2019-Dec-04 12:20 344 1 gusting 3 15.6
2019-Dec-04 12:10 346 0 gusting 3 15.7
2019-Dec-04 12:00 331 0 gusting 3 15.5
2019-Dec-04 11:50 334 1 gusting 2 15.3
2019-Dec-04 11:40 344 0 gusting 2 14.7
2019-Dec-04 11:30 347 0 gusting 2 14.3
2019-Dec-04 11:20 035 0 gusting 2 13.8
2019-Dec-04 11:10 13.8
2019-Dec-04 11:00 037 1 gusting 2 13.6
2019-Dec-04 10:50 037 0 gusting 0 13.5
2019-Dec-04 10:40 037 0 gusting 1 13.5
2019-Dec-04 10:30 037 0 gusting 2 13.3
2019-Dec-04 10:20 059 0 gusting 0 12.8
2019-Dec-04 10:10 059 0 gusting 1 12.7
2019-Dec-04 10:00 059 0 gusting 2 12.7
2019-Dec-04 09:50 051 0 gusting 3 12.6
2019-Dec-04 09:40 043 0 gusting 2 12.6
2019-Dec-04 09:30 044 1 gusting 1 12.4
2019-Dec-04 09:20 044 1 gusting 2 12.4
2019-Dec-04 09:10 045 0 gusting 2 12.2
2019-Dec-04 09:00 079 0 gusting 3 12.1
2019-Dec-04 08:50 078 1 gusting 3 12.0
2019-Dec-04 08:40 080 2 gusting 3 12.2
2019-Dec-04 08:30 072 1 gusting 3 12.2
2019-Dec-04 08:20 071 2 gusting 3 12.2
2019-Dec-04 08:10 061 1 gusting 2 12.1
2019-Dec-04 08:00 084 0 gusting 2 12.3
2019-Dec-04 07:50 071 1 gusting 3 12.2
2019-Dec-04 07:40 039 1 gusting 2 12.3
2019-Dec-04 07:30 053 3 gusting 3 12.4
2019-Dec-04 07:20 028 0 gusting 3 12.5
2019-Dec-04 07:10 107 2 gusting 3 12.7
2019-Dec-04 07:00 129 2 gusting 5 12.7
2019-Dec-04 06:50 123 2 gusting 2 12.9
2019-Dec-04 06:40 127 0 gusting 1 13.0
2019-Dec-04 06:30 128 0 gusting 3 12.9
2019-Dec-04 06:20 138 3 gusting 4 12.9
2019-Dec-04 06:10 046 1 gusting 2 13.1
2019-Dec-04 06:00 058 1 gusting 3 13.1
2019-Dec-04 05:50 018 0 gusting 2 13.1
2019-Dec-04 05:40 167 2 gusting 2 13.5
2019-Dec-04 05:30 201 0 gusting 1 13.3
2019-Dec-04 05:20 201 0 gusting 3 13.2
2019-Dec-04 05:10 186 1 gusting 4 13.1
2019-Dec-04 05:00 153 0 gusting 4 13.1
2019-Dec-04 04:50 159 3 gusting 5 13.1
2019-Dec-04 04:40 145 3 gusting 3 12.8
2019-Dec-04 04:30 12.8
2019-Dec-04 04:20 168 0 gusting 4 12.5
2019-Dec-04 04:10 141 2 gusting 5 12.4
2019-Dec-04 04:00 151 3 gusting 5 12.3
2019-Dec-04 03:50 151 2 gusting 4 12.3
2019-Dec-04 03:40 160 0 gusting 4 12.5
2019-Dec-04 03:30 102 1 gusting 1 12.8
2019-Dec-04 03:20 102 0 gusting 0 12.6
2019-Dec-04 03:10 102 1 gusting 2 12.6
2019-Dec-04 03:00 102 0 gusting 1 12.9
2019-Dec-04 02:50 102 0 gusting 2 12.8
2019-Dec-04 02:40 102 12.6
2019-Dec-04 02:30 017 0 gusting 1 12.9
2019-Dec-04 02:20 13.2
2019-Dec-04 02:10 13.1
2019-Dec-04 02:00 12.9
2019-Dec-04 01:50 017 0 gusting 0 13.3
2019-Dec-04 01:40 13.3
2019-Dec-04 01:30 13.8
2019-Dec-04 01:20 13.7
2019-Dec-04 01:10 13.4
2019-Dec-04 01:00 14.1
2019-Dec-04 00:50 14.2
2019-Dec-04 00:40 14.2
2019-Dec-04 00:30 14.3
2019-Dec-04 00:20 14.5
2019-Dec-04 00:10 017 0 gusting 1 14.7
2019-Dec-04 00:00 017 0 gusting 1 14.7
2019-Dec-03 23:50 017 0 gusting 0 14.8
2019-Dec-03 23:40 15.1
2019-Dec-03 23:30 015 3 gusting 4 15.2
2019-Dec-03 23:20 360 1 gusting 4 15.3
2019-Dec-03 23:10 319 2 gusting 5 15.4
2019-Dec-03 23:00 030 2 gusting 6 15.3
2019-Dec-03 22:50 314 1 gusting 5 15.7
2019-Dec-03 22:40 15.7
2019-Dec-03 22:30 311 3 gusting 4 15.7
2019-Dec-03 22:20 277 2 gusting 6 15.8
2019-Dec-03 22:10 313 0 gusting 5 15.9
2019-Dec-03 22:00 347 2 gusting 5 16.0